Regional Weather Roundup
Issued by NWS

Home | Current Version | Previous Version | Text Only | Print | Product List | Glossary On
Versions: 1 2 3 4 5 6 7 8 9 10 11 12 13 14 15 16 17 18 19 20 21 22 23 24 25 26 27 28 29 30 31 32 33 34 35 36 37 38 39 40 41 42 43 44 45 46 47 48 49 50
000
ASUS44 KOUN 201400
RWROK

WEATHER ROUNDUP FOR OKLAHOMA
NATIONAL WEATHER SERVICE NORMAN OK
800 AM CST MON FEB 20 2017

NOTE: "FAIR" INDICATES FEW OR NO CLOUDS BELOW 12,000 FEET WITH NO
      SIGNIFICANT WEATHER AND/OR OBSTRUCTIONS TO VISIBILITY.

OKZ001>007-009>012-014-015-017-201500-
NORTHWEST OKLAHOMA AND THE PANHANDLE

CITY           SKY/WX    TMP DP  RH WIND       PRES   REMARKS
GAGE           CLOUDY    50  45  83 SW10      29.81R
GUYMON         CLEAR     44  32  62 NW12      29.87R
ENID/WOODRING  CLOUDY    54  54 100 S6        29.81R
$$

OKZ016-021>023-033>039-044-045-201500-
SOUTHWEST OKLAHOMA

CITY           SKY/WX    TMP DP  RH WIND       PRES   REMARKS
LAWTON/REGL    CLOUDY    54  52  93 E7        29.82F
LAWTON/FT SILL CLOUDY    53  53 100 SE6       29.81F
FREDERICK      CLOUDY    53  52  96 SW7       29.81R
CLINTON        CLOUDY    52  50  93 S13       29.83R
HOBART         CLOUDY    53  51  93 S12       29.84R
ALTUS AFB      CLOUDY    51  50  96 S5        29.84R
$$

OKZ018>020-024>031-201500-
CENTRAL OKLAHOMA

CITY           SKY/WX    TMP DP  RH WIND       PRES   REMARKS
OKLAHOMA CITY  CLOUDY    54  53  97 S6        29.84S
OKC/WILEY POST CLOUDY    55  54  96 S10       29.84S
STILLWATER     CLOUDY    56  53  90 VRB3      29.83R
GUTHRIE        CLOUDY    55  53  93 S8        29.83R
$$

OKZ008-013-054>072-201500-
NORTHEAST OKLAHOMA

CITY           SKY/WX    TMP DP  RH WIND       PRES   REMARKS
TULSA          MOCLDY    60  59  96 SE10      29.81F
TULSA/JONES    CLOUDY    60  57  89 SE6       29.82F
PONCA CITY     CLOUDY    57  54  89 SW8       29.81R
BARTLESVILLE   CLOUDY    59  57  93 SE7       29.81F
MUSKOGEE       CLOUDY    59  59 100 SE10      29.89F
$$

OKZ032-040>043-046>053-073>077-201500-
SOUTH CENTRAL/SOUTHEAST OKLAHOMA

CITY           SKY/WX    TMP DP  RH WIND       PRES   REMARKS
MCALESTER      CLOUDY    58  54  86 SE9       29.89F
$$





USA.gov is the U.S. government's official web portal to all federal, state and local government web resources and services.